[[{"header":{"parameterUnit":"m.s-1","parameterCategory":1,"la1":30.2991,"la2":30.254,"lo1":-89.0895,"lo2":-89.0444,"dy":0.0017,"dx":0.0017,"nx":28,"ny":28,"refTime":"2024-09-04T09:00:00:Z","depth":0,"parameterNumber":2,"parameterNumberName":"U-component_of_WINDS"},"data":[0,0,0,0,0,0,0,0,0,0,0,0,0,0,0,0,0,0,0,0,0,0,0,0,0,0,0,0,0,0,0,0,0,0,0,0,0,0,0,0,0,0,0,0,0,0,0,0,0,0,0,0,0,0,0,0,0,0,-6.5349,-6.5349,0,-6.5371,-6.5371,-6.5371,-6.5218,-6.5214,-6.521,-6.5206,-6.5227,-6.5231,-6.5236,0,0,0,0,0,0,0,0,0,0,0,0,0,-6.5174,-6.5178,-6.5349,-6.5349,-6.535,-6.5371,-6.5371,-6.5371,-6.5219,-6.5214,-6.5209,-6.5204,-6.5226,-6.5231,-6.5236,0,0,0,0,0,0,0,0,0,0,0,0,0,-6.5229,-6.518,-6.5349,-6.5276,-6.527,-6.5371,-6.5371,-6.5371,-6.522,-6.5214,-6.5207,-6.5201,-6.5224,-6.523,-6.5237,-6.5408,0,0,-6.5258,-6.5261,0,0,0,0,0,0,0,0,-6.5226,-6.5235,-6.5287,-6.5281,-6.5274,-6.5285,-6.5317,-6.5384,-6.5222,-6.5239,-6.5206,-6.5198,-6.5252,-6.5256,-6.5274,-6.5409,-6.541,-6.5259,-6.5263,-6.5266,-6.5268,0,0,0,0,0,0,0,-6.5222,-6.5233,-6.5357,-6.5288,-6.528,-6.5242,-6.5243,-6.5329,-6.5281,-6.5237,-6.5226,-6.5231,-6.5247,-6.5268,-6.5273,-6.5411,-6.5258,-6.5265,-6.5269,-6.5271,-6.5687,-6.5693,0,0,0,0,0,0,-6.5228,-6.5231,-6.5357,-6.5358,-6.5234,-6.525,-6.5251,-6.5288,-6.528,-6.5272,-6.5236,-6.5224,-6.5259,-6.5265,-6.5273,-6.5472,-6.5266,-6.5272,-6.5276,-6.568,-6.5688,-6.5696,0,0,0,0,0,0,-6.5225,-6.5241,-6.5356,-6.5292,-6.5303,-6.526,-6.5303,-6.5292,-6.5312,-6.5279,-6.527,-6.5266,-6.5254,-6.5264,-6.5376,-6.5471,-6.5275,-6.5281,-6.5672,-6.5683,-6.5692,-6.5873,0,0,0,0,0,0,-6.5221,-6.5241,-6.5306,-6.5294,-6.5307,-6.5459,-6.5309,-6.5297,-6.5325,-6.5308,-6.5305,-6.5298,-6.525,-6.5366,-6.5383,-6.5477,-6.5287,-6.5663,-6.5677,-6.5689,-6.5858,-6.5888,-6.5914,0,0,0,0,0,-6.5215,-6.5356,-6.531,-6.5326,-6.5388,-6.5465,-6.5472,-6.5414,-6.5333,-6.5398,-6.5376,-6.5298,-6.5459,-6.5379,-6.5396,-6.5494,-6.5657,-6.5673,-6.5688,-6.5846,-6.5882,-6.5913,0,0,0,0,0,0,-6.5379,-6.5353,-6.5302,-6.5443,-6.5457,-6.5439,-6.5518,-6.5455,-6.5492,-6.5475,-6.5401,-6.5402,-6.5526,-6.5521,-6.5434,-6.5659,-6.5543,-6.5563,-6.5658,-6.5692,-6.5719,-6.5718,-6.5293,0,0,0,0,0,-6.5432,-6.5497,-6.547,-6.5597,-6.5607,-6.5562,-6.5593,-6.5548,-6.5559,-6.5564,-6.5551,-6.5565,-6.5618,-6.5655,-6.5702,-6.5857,-6.5854,-6.5933,-6.5961,-6.5984,-6.6001,-6.6082,-6.6117,-6.5747,-6.5747,-6.5747,0,0,-6.5541,-6.5535,-6.558,-6.563,-6.5636,-6.5704,-6.5568,-6.5646,-6.5696,-6.5576,-6.5681,-6.5672,-6.5683,-6.5817,-6.5875,-6.5817,-6.6103,-6.6004,-6.6022,-6.6027,-6.6102,-6.6137,-6.6168,-6.5758,-6.5756,-6.5754,0,0,-6.5774,-6.5777,-6.5882,-6.5891,-6.5902,-6.5871,-6.5897,-6.5888,-6.5878,-6.5982,-6.5893,-6.5951,-6.6045,-6.6056,-6.6074,-6.6313,-6.6242,-6.6331,-6.6475,-6.6555,-6.6584,-6.661,-6.6694,-6.6725,-6.6348,-6.6349,-6.6349,0,-6.5908,-6.6008,-6.5945,-6.6029,-6.6053,-6.5949,-6.6055,-6.6066,-6.6092,-6.6111,-6.6045,-6.616,-6.616,-6.6295,-6.6354,-6.6372,-6.6398,-6.633,-6.6585,-6.661,-6.6633,-6.6713,-6.6745,-6.6359,-6.6358,-6.6357,-6.6356,0,-6.6172,-6.6243,-6.6327,-6.6355,-6.6389,-6.6484,-6.6434,-6.6476,-6.6428,-6.6404,-6.6512,-6.6508,-6.6553,-6.6581,-6.6535,-6.671,-6.6673,-6.6598,-6.648,-6.668,-6.6753,-6.6784,-6.6375,-6.6371,-6.6368,-6.6365,0,0,-6.6509,-6.65,-6.6532,-6.6543,-6.6548,-6.6601,-6.6691,-6.6735,-6.6772,-6.6794,-6.6867,-6.6949,-6.6879,-6.69,-6.6854,-6.6924,-6.7113,-6.6839,-6.6838,-6.689,-6.7305,-6.7361,-6.7397,-6.7066,-6.7072,-6.7076,-6.7303,0,-6.6736,-6.6889,-6.6835,-6.6992,-6.7056,-6.6958,-6.7036,-6.7048,-6.7028,-6.7079,-6.7057,-6.7116,-6.702,-6.7032,-6.7097,-6.7076,-6.7195,-6.7059,-6.7133,-6.7136,-6.7132,-6.7436,-6.7495,-6.7709,-6.7332,-6.7337,-6.734,0,-6.7021,-6.7054,-6.7218,-6.7211,-6.7236,-6.7308,-6.7343,-6.7394,-6.7404,-6.7385,-6.7409,-6.7348,-6.7435,-6.7319,-6.7438,-6.7347,-6.7374,-6.7369,-6.7376,-6.7379,-6.725,-6.7446,-6.7776,-6.7808,-6.7385,-6.7381,-6.7378,0,-6.7249,-6.7335,-6.7443,-6.7456,-6.7451,-6.7504,-6.7504,-6.7508,-6.7538,-6.7569,-6.7588,-6.7629,-6.7652,-6.7685,-6.7637,-6.7557,-6.7763,-6.7642,-6.7749,-6.775,-6.7795,-6.7793,-6.8134,-6.7816,-6.7815,-6.7815,-6.7814,0,-6.7508,-6.7611,-6.7546,-6.7612,-6.7725,-6.7662,-6.7776,-6.7765,-6.777,-6.7832,-6.775,-6.7811,-6.7744,-6.7798,-6.7761,-6.7865,-6.7876,-6.7862,-6.7851,-6.7869,-6.7871,-6.7884,-6.7868,-6.7823,-6.7821,-6.782,-6.7818,0,-6.778,-6.7741,-6.7853,-6.7839,-6.7838,-6.7922,-6.791,-6.7971,-6.7946,-6.8026,-6.8041,-6.8002,-6.8062,-6.8017,-6.8076,-6.8051,-6.8188,-6.8156,-6.8184,-6.8175,-6.8283,-6.8273,-6.8644,-6.8689,-6.8344,-6.8347,-6.835,0,-6.7947,-6.8025,-6.802,-6.8056,-6.8062,-6.8121,-6.8151,-6.8092,-6.8127,-6.8145,-6.8204,-6.8257,-6.8295,-6.8395,-6.8371,-6.8416,-6.8384,-6.8511,-6.839,-6.8406,-6.8384,-6.838,-6.8387,-6.8535,-6.8539,-6.8542,-6.8545,0,-6.8248,-6.8225,-6.8271,-6.8312,-6.8351,-6.838,-6.8402,-6.8436,-6.8376,-6.8419,-6.8479,-6.851,-6.857,-6.8623,-6.8659,-6.8658,-6.8592,-6.8583,-6.861,-6.8628,-6.8641,-6.8635,-6.825,-6.8575,-6.8572,-6.857,-6.8568,-6.8567,-6.8472,-6.8536,-6.8542,-6.8597,-6.8608,-6.8631,-6.8687,-6.867,-6.8719,-6.8763,-6.8726,-6.8798,-6.8806,-6.8848,-6.8856,-6.8911,-6.8858,-6.8897,-6.8907,-6.8917,-6.8932,-6.8634,-6.8917,-6.8916,-6.8915,-6.8915,-6.8914,0,-6.8767,-6.8766,-6.8818,-6.8852,-6.8895,-6.883,-6.8851,-6.8891,-6.8956,-6.8969,-6.9009,-6.9078,-6.9129,-6.9111,-6.9156,-6.9203,-6.9174,-6.9217,-6.9212,-6.9213,-6.8977,-6.8949,-6.924,-6.924,-6.924,-6.924,-6.924,-6.924,-6.8925,-6.903,-6.9008,-6.9117,-6.9115,-6.9185,-6.9203,-6.9224,-6.9234,-6.9315,-6.9357,-6.9344,-6.9345,-6.9389,-6.9433,-6.9426,-6.9446,-6.95,-6.9482,-6.9262,-6.923,-6.9199,-6.9172,-6.9506,-6.9506,-6.9713,-6.9715,-6.9717]},{"header":{"parameterUnit":"m.s-1","parameterCategory":1,"la1":30.2991,"la2":30.254,"lo1":-89.0895,"lo2":-89.0444,"dy":0.0017,"dx":0.0017,"nx":28,"ny":28,"refTime":"2024-09-04T09:00:00:Z","depth":0,"parameterNumber":3,"parameterNumberName":"V-component_of_WINDS"},"data":[0,0,0,0,0,0,0,0,0,0,0,0,0,0,0,0,0,0,0,0,0,0,0,0,0,0,0,0,0,0,0,0,0,0,0,0,0,0,0,0,0,0,0,0,0,0,0,0,0,0,0,0,0,0,0,0,0,0,-0.4196,-0.4197,0,-0.4258,-0.4258,-0.4259,-0.4324,-0.4325,-0.4325,-0.4326,-0.4387,-0.4388,-0.4389,0,0,0,0,0,0,0,0,0,0,0,0,0,-0.4132,-0.4133,-0.4196,-0.4197,-0.4198,-0.4257,-0.4258,-0.4259,-0.4323,-0.4325,-0.4326,-0.4327,-0.4387,-0.4388,-0.4389,0,0,0,0,0,0,0,0,0,0,0,0,0,-0.4173,-0.4133,-0.4196,-0.4237,-0.4241,-0.4257,-0.4258,-0.4259,-0.4323,-0.4325,-0.4326,-0.4327,-0.4387,-0.4388,-0.4389,-0.4369,0,0,-0.4393,-0.4393,0,0,0,0,0,0,0,0,-0.4171,-0.4175,-0.423,-0.4234,-0.4239,-0.4284,-0.4258,-0.4296,-0.4323,-0.4292,-0.4326,-0.4328,-0.4352,-0.4356,-0.4364,-0.4372,-0.4374,-0.4393,-0.4393,-0.4394,-0.4394,0,0,0,0,0,0,0,-0.4168,-0.4173,-0.4221,-0.4231,-0.4236,-0.4251,-0.4259,-0.4266,-0.4313,-0.4295,-0.43,-0.4306,-0.4355,-0.4363,-0.4366,-0.4375,-0.4393,-0.4394,-0.4394,-0.4395,-0.4366,-0.4365,0,0,0,0,0,0,-0.4159,-0.417,-0.4219,-0.4222,-0.4208,-0.4251,-0.426,-0.4268,-0.4314,-0.4322,-0.4305,-0.4309,-0.436,-0.4365,-0.4369,-0.4346,-0.4394,-0.4395,-0.4396,-0.4367,-0.4366,-0.4364,0,0,0,0,0,0,-0.4157,-0.4163,-0.4216,-0.4198,-0.4206,-0.4251,-0.426,-0.4269,-0.4278,-0.4321,-0.433,-0.4305,-0.4362,-0.4367,-0.4368,-0.4349,-0.4395,-0.4397,-0.4369,-0.4367,-0.4365,-0.4301,0,0,0,0,0,0,-0.4155,-0.4162,-0.4155,-0.4197,-0.4206,-0.4215,-0.4259,-0.4269,-0.428,-0.4286,-0.4324,-0.4331,-0.4363,-0.4366,-0.4369,-0.4351,-0.4397,-0.4371,-0.4368,-0.4366,-0.4305,-0.4297,-0.429,0,0,0,0,0,-0.4153,-0.4135,-0.4155,-0.416,-0.42,-0.4214,-0.4219,-0.4257,-0.4278,-0.4271,-0.4299,-0.433,-0.4351,-0.4365,-0.4369,-0.4352,-0.4372,-0.4369,-0.4366,-0.4308,-0.4299,-0.429,0,0,0,0,0,0,-0.409,-0.4142,-0.4164,-0.416,-0.4182,-0.4225,-0.4217,-0.4245,-0.4262,-0.4266,-0.4312,-0.432,-0.4314,-0.4334,-0.4349,-0.4333,-0.4366,-0.4363,-0.4321,-0.4312,-0.4304,-0.4299,-0.4398,0,0,0,0,0,-0.4076,-0.4084,-0.4128,-0.412,-0.413,-0.4172,-0.4179,-0.4206,-0.4231,-0.424,-0.4268,-0.429,-0.4302,-0.4308,-0.4321,-0.4309,-0.4316,-0.4298,-0.4291,-0.4285,-0.4281,-0.4273,-0.4265,-0.4353,-0.4353,-0.4353,0,0,-0.4047,-0.4076,-0.4078,-0.4108,-0.4129,-0.4135,-0.4179,-0.4184,-0.4189,-0.4241,-0.4243,-0.4264,-0.4291,-0.4284,-0.4283,-0.43,-0.4259,-0.428,-0.4275,-0.4275,-0.4269,-0.426,-0.4253,-0.4351,-0.4351,-0.4352,0,0,-0.3996,-0.4019,-0.4014,-0.4033,-0.4063,-0.4091,-0.4089,-0.4128,-0.4143,-0.4146,-0.4185,-0.419,-0.421,-0.4227,-0.4238,-0.4191,-0.4219,-0.4194,-0.4154,-0.4146,-0.4139,-0.4133,-0.4114,-0.4106,-0.4191,-0.4191,-0.419,0,-0.3955,-0.3966,-0.4008,-0.401,-0.4021,-0.4068,-0.4062,-0.4079,-0.4111,-0.4117,-0.4136,-0.416,-0.4182,-0.4178,-0.4166,-0.4175,-0.4173,-0.4189,-0.4137,-0.4131,-0.4126,-0.4108,-0.4101,-0.4187,-0.4188,-0.4188,-0.4188,0,-0.3914,-0.3921,-0.3913,-0.3942,-0.3953,-0.3951,-0.399,-0.3995,-0.4021,-0.4045,-0.4046,-0.4074,-0.4092,-0.4094,-0.4119,-0.4093,-0.4102,-0.4129,-0.4162,-0.4113,-0.4097,-0.4091,-0.4182,-0.4183,-0.4184,-0.4185,0,0,-0.3825,-0.3877,-0.3873,-0.3886,-0.3922,-0.3927,-0.3926,-0.3944,-0.3947,-0.3967,-0.3966,-0.398,-0.4004,-0.4016,-0.4044,-0.4037,-0.3994,-0.4064,-0.4065,-0.4048,-0.3964,-0.3943,-0.3934,-0.4014,-0.4013,-0.4012,-0.3961,0,-0.3779,-0.378,-0.3816,-0.3807,-0.3813,-0.3857,-0.3856,-0.3877,-0.39,-0.3907,-0.3932,-0.394,-0.3972,-0.398,-0.3975,-0.4,-0.3978,-0.4005,-0.4011,-0.4011,-0.4001,-0.3926,-0.3904,-0.3855,-0.3955,-0.3954,-0.3954,0,-0.3725,-0.3741,-0.3733,-0.3767,-0.377,-0.3769,-0.3787,-0.3794,-0.3817,-0.3834,-0.3847,-0.3878,-0.3878,-0.391,-0.3909,-0.3926,-0.3931,-0.3944,-0.3943,-0.3943,-0.3978,-0.3923,-0.384,-0.3832,-0.3945,-0.3945,-0.3946,0,-0.3658,-0.3678,-0.3675,-0.3685,-0.3725,-0.3723,-0.3739,-0.3765,-0.3772,-0.3788,-0.3793,-0.3808,-0.3816,-0.3826,-0.3859,-0.388,-0.3853,-0.3889,-0.3865,-0.3864,-0.3856,-0.3856,-0.3771,-0.3863,-0.3863,-0.3863,-0.3863,0,-0.3601,-0.3593,-0.3645,-0.3643,-0.3635,-0.3676,-0.3666,-0.3687,-0.3709,-0.371,-0.375,-0.375,-0.3795,-0.38,-0.3826,-0.3819,-0.3823,-0.3835,-0.3842,-0.3831,-0.3829,-0.3833,-0.3836,-0.3861,-0.3861,-0.3862,-0.3862,0,-0.3524,-0.3559,-0.3558,-0.3596,-0.3605,-0.3597,-0.3629,-0.3627,-0.3652,-0.3653,-0.3656,-0.3694,-0.3702,-0.3736,-0.3752,-0.377,-0.3753,-0.3768,-0.3745,-0.3749,-0.3722,-0.3723,-0.3635,-0.3625,-0.3725,-0.3724,-0.3723,0,-0.3485,-0.348,-0.3517,-0.352,-0.3535,-0.3541,-0.3549,-0.3588,-0.3594,-0.362,-0.3615,-0.3625,-0.3636,-0.3645,-0.3674,-0.3685,-0.3699,-0.3668,-0.3701,-0.3689,-0.3696,-0.3694,-0.3693,-0.366,-0.3658,-0.3657,-0.3657,0,-0.341,-0.3427,-0.3437,-0.3452,-0.346,-0.3473,-0.349,-0.349,-0.3534,-0.3538,-0.3546,-0.3554,-0.357,-0.3579,-0.3595,-0.3611,-0.3639,-0.3646,-0.3641,-0.3628,-0.3613,-0.3618,-0.3722,-0.3647,-0.3648,-0.3649,-0.365,-0.365,-0.3349,-0.3345,-0.337,-0.3379,-0.3395,-0.3409,-0.3408,-0.3433,-0.344,-0.3456,-0.3479,-0.3483,-0.3505,-0.3529,-0.3543,-0.3545,-0.3562,-0.3555,-0.3553,-0.355,-0.3543,-0.3615,-0.3549,-0.3549,-0.355,-0.355,-0.355,0,-0.3274,-0.3291,-0.3299,-0.332,-0.3326,-0.3354,-0.3373,-0.3376,-0.3379,-0.3398,-0.3407,-0.3414,-0.3423,-0.3452,-0.3463,-0.3459,-0.3473,-0.3461,-0.346,-0.3463,-0.3529,-0.3531,-0.3449,-0.3449,-0.3449,-0.3449,-0.3449,-0.3449,-0.3235,-0.323,-0.3249,-0.3251,-0.3269,-0.3274,-0.3282,-0.3293,-0.3308,-0.3315,-0.3322,-0.3341,-0.3363,-0.3376,-0.3384,-0.3392,-0.3393,-0.3376,-0.3388,-0.3449,-0.3458,-0.3468,-0.347,-0.3376,-0.3376,-0.3321,-0.3321,-0.3321]}]]